This is the latest recevied weather packets stored in our database for station/object VE3TEJ. If no packets are shown the sender has not sent any weather packets the latest 10 day(s).
| Time | Temp. | Humidity | Pressure | Rain* | Wind** | Luminosity | Snow |
|---|---|---|---|---|---|---|---|
| 1778151758 | 3.89° C | 72% | 1010.6 hPa | 0 mm | - | - | - |
| 1778151458 | 3.33° C | 73% | 1010.9 hPa | 0 mm | - | - | - |
| 1778151157 | 2.78° C | 76% | 1010.5 hPa | 0 mm | - | - | - |
| 1778150859 | 2.22° C | 77% | 1010.7 hPa | 0 mm | - | - | - |
| 1778150558 | 2.22° C | 78% | 1010.8 hPa | 0 mm | - | - | - |
| 1778150258 | 2.22° C | 79% | 1010.6 hPa | 0 mm | - | - | - |
| 1778149957 | 1.67° C | 80% | 1010.8 hPa | 0 mm | - | - | - |
| 1778149657 | 1.67° C | 80% | 1010.7 hPa | 0 mm | - | - | - |
| 1778149359 | 1.67° C | 79% | 1010.6 hPa | 0 mm | - | - | - |
| 1778149058 | 2.22° C | 78% | 1010.7 hPa | 0 mm | - | - | - |
| 1778148758 | 2.22° C | 78% | 1010.7 hPa | 0 mm | - | - | - |
| 1778148457 | 2.22° C | 77% | 1010.6 hPa | 0 mm | - | - | - |
| 1778148159 | 2.78° C | 77% | 1010.8 hPa | 0 mm | - | - | - |
| 1778147859 | 2.22° C | 77% | 1010.6 hPa | 0 mm | - | - | - |
| 1778147558 | 2.78° C | 77% | 1010.6 hPa | 0 mm | - | - | - |
| 1778147259 | 2.78° C | 77% | 1010.7 hPa | 0 mm | - | - | - |
| 1778146958 | 2.78° C | 77% | 1010.7 hPa | 0 mm | - | - | - |
| 1778146658 | 2.78° C | 77% | 1010.5 hPa | 0 mm | - | - | - |
| 1778146358 | 2.78° C | 77% | 1010.5 hPa | 0 mm | - | - | - |
| 1778146057 | 3.33° C | 76% | 1010.8 hPa | 0 mm | - | - | - |
| 1778145759 | 3.33° C | 76% | 1010.8 hPa | 0 mm | - | - | - |
| 1778145458 | 3.33° C | 76% | 1010.7 hPa | 0 mm | - | - | - |
| 1778145158 | 3.33° C | 76% | 1010.8 hPa | 0 mm | - | - | - |
| 1778144859 | 3.33° C | 77% | 1010.6 hPa | 0 mm | - | - | - |
| 1778144558 | 3.33° C | 78% | 1010.9 hPa | 0 mm | - | - | - |
* Rain latest hour (hover to see other rain measurements)
** Current wind speed in m/s (hover to see current wind gust speed)